Simultaneous Nadir Overpasses (SNOs) Predictions

Prediction of SNOs between GOES-16 and AQUA Satellite Orbit:

Table of predicted SNOs for the next 14.0 days since TLE Epoch: 8/24/2024
Index Date Time (GOES-16) GOES-16 Lat,Lon AQUA Lat,Lon Distance(km) Time Diff (sec)
1 08/25/2024 07:03:47 0.06, -75.21 -0.54, -72.45 313.77 80
2 08/25/2024 19:23:53 -0.05, -75.21 -0.49, -77.31 239.12 80
3 08/27/2024 19:09:19 -0.05, -75.22 0.41, -73.10 241.13 80
4 08/28/2024 07:29:16 0.04, -75.22 0.64, -77.92 307.60 80
5 08/30/2024 07:09:21 0.03, -75.24 -0.30, -73.71 174.00 80
6 08/30/2024 19:29:26 -0.03, -75.24 -0.74, -78.57 378.28 80
7 09/01/2024 19:14:49 -0.02, -75.27 0.17, -74.34 105.27 80
8 09/02/2024 07:34:45 0.01, -75.28 0.82, -79.18 442.43 80
9 09/04/2024 07:14:46 0.01, -75.32 -0.07, -74.94 43.13 80
10 09/06/2024 19:17:30 -0.01, -75.37 -0.05, -75.56 21.12 80
